Weather in Karmanovo

Russia / Republic of Bashkortostan     56°13′54″N   54°32′22″E
temp.,
°C
wind,
m/s
gust,
m/s
humid.,
%
clouds,
%
prec.,
mm/h
press.,
hPa
HPBL,
m
23 may, mon
mon2323:00+2wsw228460 0.4 99919
02:00+1sw228960 0.0 99918
05:00−1sw229250 0.0 99912
08:00+4wsw127172 0.0 998309
11:00+8ssw245894 0.0 9981285
14:00+9sw3457100 0.1 9981489
17:00+9sw4657100 0.1 9991620
20:00+8sw366693 0.1 1000685
24 may, tue
tue2423:00+4ssw248292 0.1 100292
02:00+2s229083 0.0 100323
05:00+2s2292100 0.0 100425
08:00+6ssw367387 0.0 1005363
11:00+10sw465460 0.0 10051644
14:00+12ssw464681 0.1 10061906
17:00+13sse564893 0.1 10071894
20:00+11sse2567100 0.1 1007196
25 may, wed
wed2523:00+7se3580100 0.1 100870
02:00+6se1189100 0.0 100810
05:00+5ese1190100 0.0 100810
08:00+9sse11735 0.0 1008237
11:00+13sse2257100 0.0 10071078
14:00+15s2346100 0.1 10072002
17:00+12w5774100 0.4 1007368
20:00+8w4788100 0.3 1009374
26 may, thu
thu2623:00+6w369240 0.4 1009215
02:00+4w239336 0.0 100955
05:00+5w3689100 0.0 1008241
08:00+6w47735 0.0 1009443
11:00+10wsw5760100 0.1 10081628
14:00+7w796770 0.1 10101280
17:00+9wsw586595 0.2 10101453
20:00+8sw486934 0.1 10091136
27 may, fri
fri2723:00+6ssw41189100 0.1 1009425
02:00+6ssw4995100 1.6 10071024
05:00+6s5128895 2.3 1005567
08:00+7s51193100 0.1 1004521
11:00+9ssw5991100 0.5 1003727
14:00+9sse51196100 2.3 1003671
17:00+11s51493100 4.8 10011148
20:00+11ssw61294100 0.6 1001714